Location: North Evanston
(42.0634°N, 87.6976°W)
Time: 00:38:48
(UTC+00:00)

Vanguard 2 - Visible Passes

Search period start: 14 May 2026 00:00
Search period end: 24 May 2026 00:00
Orbit: 553 x 2895 km, 32.9° (Epoch: 13 May)

Date Brightness Start Highest point End Pass type
(mag) Time Alt. Az. Time Alt. Az. Time Alt. Az.
14 May 10.8 06:09:18 29° SSE 06:10:14 30° SE 06:23:29 10° E visible
14 May 10.4 08:10:09 26° SW 08:20:37 51° SSE 08:34:43 10° E visible
15 May 10.6 06:19:19 34° SSE 06:21:29 35° SSE 06:35:42 10° E visible
15 May 10.4 08:20:09 23° SW 08:32:09 55° SSE 08:46:26 10° E visible
16 May 11.4 04:28:24 15° ESE 04:28:24 15° ESE 04:32:39 10° ESE visible
16 May 10.5 06:29:14 37° S 06:32:46 40° SSE 06:47:41 10° E visible
16 May 10.3 08:30:03 19° WSW 08:43:41 58° S 08:58:07 10° E visible
17 May 11.1 04:38:14 20° ESE 04:38:14 20° ESE 04:45:59 10° E visible
17 May 10.4 06:39:03 38° S 06:44:07 46° SSE 06:59:34 10° E visible
17 May 10.3 08:39:52 15° WSW 08:55:16 61° S 09:09:45 10° E visible
18 May 10.9 04:47:57 26° SE 04:47:57 26° SE 04:58:40 10° E visible
18 May 10.4 06:48:45 37° SSW 06:55:30 50° SSE 07:11:22 10° E visible
18 May 10.3 08:49:39 10° WSW 09:06:51 62° S 09:21:22 10° ESE visible
19 May 10.6 04:57:31 32° SE 04:57:31 32° SE 05:10:58 10° E visible
19 May 10.3 06:58:18 33° SW 07:06:57 55° SSE 07:23:05 10° E visible
19 May 10.3 09:01:13 10° WSW 09:18:25 61° S 09:32:56 10° ESE visible
20 May 10.4 05:06:53 37° SSE 05:07:56 37° SSE 05:23:02 10° E visible
20 May 10.3 07:07:39 26° SW 07:18:26 58° SSE 07:34:47 10° E visible
20 May 10.3 09:12:50 10° W 09:29:58 60° S 09:44:27 10° ESE visible
21 May 11.1 03:15:12 15° ESE 03:15:12 15° ESE 03:19:32 10° E visible
21 May 10.2 05:15:56 39° S 05:19:10 43° SSE 05:34:57 10° E visible
21 May 10.3 07:16:40 18° WSW 07:29:58 61° S 07:46:25 10° E visible
21 May 10.4 09:24:30 10° W 09:41:29 58° SSW 09:55:54 10° ESE visible
22 May 10.7 03:23:39 21° SE 03:23:39 21° SE 03:32:34 10° E visible
22 May 10.2 05:24:18 35° SSW 05:30:28 48° SSE 05:46:45 10° E visible
22 May 10.2 07:25:30 10° WSW 07:41:31 62° S 07:58:02 10° ESE visible
22 May 10.4 09:36:11 10° W 09:52:57 54° SSW 10:07:16 10° SE visible
23 May 10.4 03:22:55 10° S 03:32:37 27° SE 03:45:04 10° E visible
23 May 10.2 05:28:19 10° SW 05:41:50 52° SSE 05:58:30 10° E visible
23 May 10.3 07:37:04 10° WSW 07:53:05 62° S 08:09:37 10° ESE visible
23 May 10.5 09:47:54 10° W 10:04:22 50° SSW 10:18:30 10° SE visible
